STARLINK-11671, 64319

Orbit data source: Space-Track

STARLINK-11671, 64319 is a payload satellite owned by SpaceX/Seattle (US) in LEO that was launched on Tue, 10 Jun 2025 UTC via an FALCON 9 launch vehicle from the Air Force Eastern Test Range (AFETR). Payload-class satellites include a variety of spacecraft equipped with specific instruments for various scientific and technological missions. These include communications satellites like Starlink; space stations such as the ISS; scientific satellites like the Hubble; Earth observation satellites from companies like Planet Labs, Umbra, and HawkEye 360; GPS; miniature CubeSats for education and research; and military/defense satellites.

Loading next visibility...
Identifier
64319, 2025-124C
Orbit
LEO
Country
Flag of USUS
Related business
Manufacturer
SpaceX/Seattle
Mission
Operational Commercial Communications
Bus & Motor
STARLINK V2MD, Unknown motor
Mass
960 kg wet, ~910 kg dry
Launch date (UTC)
2025-06-10 (1 year ago)
Launch vehicle
FALCON 9
Launch site
Air Force Eastern Test Range (AFETR)
Object type
Payload
Rocket body
Debris
Shape & HBR
Box + 2 Pan, 18.1 m
Radar Cross Section
36.964 m², Large (>1 m²)

Expand to show TLE details & history
Last TLE update: 16 hours ago

TLE from 16 hours ago
0 STARLINK-11671
1 64319U 25124C   26171.23366495  .00197727  00000-0  15053-2 0  9991
2 64319  43.0027 130.9575 0002502 265.5612  94.4969 15.70882618 58962
Epoch: 2026-06-20T05:36Z
TLE epoch observation values (Epoch: 2026-06-20T05:36:28.651Z)
Latitude
-0.00009°
Longitude
138.3868°
Altitude
356.277 km
Speed
7.697 km/s
True Right ascension
08h 43m 49s
True Declination
0° 00' 00"
Sunlit
Object was in daylight at epoch
Visualization orbit readout
Latitude
Unknown
Longitude
Unknown
Altitude
Unknown
Speed
Unknown
Apparent Right ascension
Unknown
Apparent Declination
Unknown
Sunlit
N/A
Visualization observer readout
Local Sidereal Time
08:42:02
Azimuth
Unknown
Elevation
Unknown
Doppler factor
Unknown
Orbital elements
Apogee altitude
360.04 km
Perigee altitude
356.669 km
Semi-major axis
6,736.491 km
Eccentricity
0.00025
Inclination
43.0027°
RAAN
130.9575°
Arg. of periapsis
265.5612°
True anomaly
94.52548°
Mean anomaly
94.4969°
Eccentric anomaly
94.51119°
Mean motion
3.92548 °/min
Orbital period
91.71 mins
BSTAR
0.0015053
Loading maneuver chart data...
Computing Atmospheric mass density...
Loading historical data...
Loading historical data...
Loading historical data...
Loading historical data...
Loading historical data...
Loading historical data...
Loading historical data...

Documentation

Showing up to 5 results
|